TimeHST,TemperatureF,Dew PointF,Humidity,Sea Level PressureIn,VisibilityMPH,Wind Direction,Wind SpeedMPH,Gust SpeedMPH,PrecipitationIn,Events,Conditions,WindDirDegrees,DateUTC
12:57 AM,75.2,72.0,90,30.13,10.0,ENE,8.1,-,0.00,,Partly Cloudy,60,2012-10-14 10:57:00
1:57 AM,75.2,69.8,83,30.11,10.0,ENE,10.4,19.6,N/A,,Partly Cloudy,70,2012-10-14 11:57:00
2:57 AM,75.2,69.8,83,30.09,10.0,East,10.4,19.6,N/A,,Scattered Clouds,80,2012-10-14 12:57:00
3:49 AM,75.2,71.6,89,30.10,6.2,East,10.4,19.6,0.00,Rain,Light Rain,90,2012-10-14 13:49:00
3:57 AM,75.2,72.0,90,30.09,10.0,East,9.2,17.3,0.00,,Overcast,80,2012-10-14 13:57:00
4:57 AM,77.0,69.8,78,30.09,10.0,East,11.5,17.3,N/A,,Overcast,80,2012-10-14 14:57:00
5:35 AM,75.2,69.8,83,30.11,6.2,East,9.2,16.1,N/A,,Mostly Cloudy,100,2012-10-14 15:35:00
5:57 AM,75.2,71.6,89,30.11,10.0,East,8.1,-,0.00,,Overcast,90,2012-10-14 15:57:00
6:14 AM,75.2,71.6,89,30.12,6.2,Variable,6.9,-,N/A,,Overcast,0,2012-10-14 16:14:00
6:47 AM,75.2,71.6,89,30.13,6.2,East,12.7,24.2,N/A,,Mostly Cloudy,80,2012-10-14 16:47:00
6:57 AM,75.2,71.1,87,30.12,10.0,East,10.4,21.9,N/A,,Mostly Cloudy,90,2012-10-14 16:57:00
7:24 AM,75.2,69.8,83,30.14,6.2,East,12.7,21.9,N/A,,Overcast,80,2012-10-14 17:24:00
7:46 AM,75.2,69.8,83,30.14,6.2,ENE,8.1,-,N/A,,Mostly Cloudy,70,2012-10-14 17:46:00
7:57 AM,75.2,71.8,89,30.13,10.0,East,10.4,20.7,N/A,,Mostly Cloudy,80,2012-10-14 17:57:00
8:57 AM,77.0,71.1,82,30.14,10.0,East,9.2,-,N/A,,Mostly Cloudy,90,2012-10-14 18:57:00
9:57 AM,82.4,71.1,68,30.14,10.0,ESE,10.4,21.9,N/A,,Mostly Cloudy,110,2012-10-14 19:57:00
10:09 AM,82.4,71.6,70,30.16,6.2,East,9.2,17.3,N/A,,Mostly Cloudy,80,2012-10-14 20:09:00
10:57 AM,80.6,73.4,79,30.14,10.0,East,9.2,17.3,N/A,,Mostly Cloudy,90,2012-10-14 20:57:00
11:57 AM,84.2,71.1,65,30.12,10.0,ENE,10.4,17.3,N/A,,Scattered Clouds,60,2012-10-14 21:57:00
12:57 PM,84.2,71.8,66,30.09,10.0,East,12.7,18.4,N/A,,Mostly Cloudy,80,2012-10-14 22:57:00
1:04 PM,84.2,71.6,66,30.10,6.2,East,10.4,18.4,N/A,,Scattered Clouds,80,2012-10-14 23:04:00
1:57 PM,80.6,72.0,75,30.07,10.0,ENE,12.7,18.4,N/A,,Mostly Cloudy,60,2012-10-14 23:57:00
2:57 PM,80.6,71.1,73,30.05,10.0,ENE,10.4,17.3,0.00,,Mostly Cloudy,60,2012-10-15 00:57:00
3:57 PM,77.0,73.4,89,30.06,10.0,ENE,6.9,17.3,0.00,Rain,Light Rain,70,2012-10-15 01:57:00
4:57 PM,77.0,73.8,90,30.06,10.0,ENE,9.2,17.3,0.00,,Mostly Cloudy,60,2012-10-15 02:57:00
5:57 PM,77.0,69.8,78,30.07,10.0,East,9.2,18.4,0.00,,Mostly Cloudy,90,2012-10-15 03:57:00
6:57 PM,77.0,70.0,79,30.08,10.0,ENE,12.7,17.3,N/A,,Mostly Cloudy,60,2012-10-15 04:57:00
7:30 PM,77.0,69.8,78,30.10,6.2,East,11.5,19.6,0.00,,Overcast,80,2012-10-15 05:30:00
7:43 PM,77.0,69.8,78,30.11,6.2,East,12.7,18.4,0.00,,Overcast,80,2012-10-15 05:43:00
7:57 PM,77.0,70.0,79,30.10,10.0,East,10.4,19.6,0.00,,Mostly Cloudy,80,2012-10-15 05:57:00
8:57 PM,77.0,71.6,83,30.11,10.0,ENE,13.8,21.9,N/A,,Mostly Cloudy,60,2012-10-15 06:57:00
9:04 PM,77.0,71.6,83,30.13,6.2,ENE,11.5,21.9,0.00,Rain,Light Rain,70,2012-10-15 07:04:00
9:57 PM,77.0,71.1,82,30.11,10.0,NE,10.4,20.7,0.00,Rain,Light Rain,50,2012-10-15 07:57:00
10:21 PM,77.0,69.8,78,30.13,6.2,ENE,8.1,-,0.00,,Overcast,70,2012-10-15 08:21:00
10:57 PM,77.0,70.0,79,30.11,10.0,East,9.2,16.1,0.00,,Mostly Cloudy,90,2012-10-15 08:57:00
11:57 PM,77.0,70.0,79,30.10,10.0,ENE,5.8,-,N/A,,Overcast,60,2012-10-15 09:57:00